QPF
0.00 0.00 0.00 0.00 0.00 0.00 0.00 0.00 0.00 0.00 0.00 0.00 0.00 0.00 0.00 0.00 0.00 0.00 0.00 0.00 0.00 0.00 0.00 0.00 0.00 0.00 0.00 0.00 0.00 0.00 0.00 0.00 0.00 0.00 0.00 0.00 0.00 0.00 0.00 0.00 0.00 0.00 0.00 0.00 0.00
0.00 0.00 0.00 0.00 0.00 0.00 0.00 0.00 0.00 0.00 0.00 0.00 0.00 0.00 0.00 0.00 0.00 0.00 0.00 0.00 0.00 0.00 0.00 0.00 0.00 0.00 0.00 0.00 0.00 0.00 0.00 0.00 0.00 0.00 0.00 0.00 0.00 0.00 0.00 0.00 0.00 0.00 0.00 0.00 0.00
0.00 0.00 0.00 0.00 0.00 0.00 0.00 0.00 0.00 0.00 0.00 0.00 0.00 0.00 0.00 0.00 0.00 0.00 0.00 0.00 0.00 0.00 0.00 0.00 0.00 0.00 0.00 0.00 0.00 0.00 0.00 0.00 0.00 0.00 0.00 0.00 0.00 0.00 0.00 0.00 0.00 0.00 0.00 0.00 0.00
0.00 0.00 0.00 0.00 0.00 0.00 0.00 0.00 0.00 0.00 0.00 0.00 0.00 0.00 0.00 0.00 0.00 0.00 0.00 0.00 0.00 0.00 0.00 0.00 0.00 0.00 0.00 0.00 0.00 0.00 0.00 0.00 0.00 0.00 0.00 0.00 0.00 0.00 0.00 0.00 0.00 0.00 0.00 0.00 0.00
0.00 0.00 0.00 0.00 0.00 0.00 0.00 0.00 0.00 0.00 0.00 0.00 0.00 0.00 0.00 0.00 0.00 0.00 0.00 0.00 0.00 0.00 0.00 0.00 0.00 0.00 0.00 0.00 0.00 0.00 0.00 0.00 0.00 0.00 0.00 0.00 0.00 0.00 0.00 0.00 0.00 0.00 0.00 0.00 0.00
0.00 0.00 0.00 0.00 0.00 0.00 0.00 0.00 0.00 0.00 0.00 0.00 0.00 0.00 0.00 0.00 0.00 0.00 0.00 0.00 0.00 0.00 0.00 0.00 0.00 0.00 0.00 0.00 0.00 0.00 0.00 0.00 0.00 0.00 0.00 0.00 0.00 0.00 0.00 0.00 0.00 0.00 0.00 0.00 0.00
0.00 0.00 0.00 0.00 0.00 0.00 0.00 0.00 0.00 0.00 0.00 0.00 0.00 0.00 0.00 0.00 0.00 0.00 0.00 0.00 0.00 0.00 0.00 0.00 0.00 0.00 0.00 0.00 0.00 0.00 0.00 0.00 0.00 0.00 0.00 0.00 0.00 0.00 0.00 0.00 0.00 0.00 0.00 0.00 0.00
0.00 0.00 0.00 0.00 0.00 0.00 0.00 0.00 0.00 0.00 0.00 0.00 0.00 0.00 0.00 0.00 0.00 0.00 0.00 0.00 0.00 0.00 0.00 0.00 0.00 0.00 0.00 0.00 0.00 0.00 0.00 0.00 0.00 0.00 0.00 0.00 0.00 0.00 0.00 0.00 0.00 0.00 0.00 0.00 0.00
0.00 0.00 0.00 0.00 0.00 0.00 0.00 0.00 0.00 0.00 0.00 0.00 0.00 0.00 0.00 0.00 0.00 0.00 0.00 0.00 0.00 0.00 0.00 0.00 0.00 0.00 0.00 0.00 0.00 0.00 0.00 0.00 0.00 0.00 0.00 0.00 0.00 0.00 0.00 0.00 0.00 0.00 0.00 0.00 0.00
0.00 0.00 0.00 0.00 0.00 0.00 0.00 0.00 0.00 0.00 0.00 0.00 0.00 0.00 0.00 0.00 0.00 0.00 0.00 0.00 0.00 0.00 0.00 0.00 0.00 0.00 0.00 0.00 0.00 0.00 0.00 0.00 0.00 0.00 0.00 0.00 0.00 0.00 0.00 0.00 0.00 0.00 0.00 0.00 0.00
0.00 0.00 0.00 0.00 0.00 0.00 0.00 0.00 0.00 0.00 0.00 0.00 0.00 0.00 0.00 0.00 0.00 0.00 0.00 0.00 0.00 0.00 0.00 0.00 0.00 0.00 0.00 0.00 0.00 0.00 0.00 0.00 0.00 0.00 0.00 0.00 0.00 0.00 0.00 0.00 0.00 0.00 0.00 0.00 0.00
0.00 0.00 0.00 0.00 0.00 0.00 0.00 0.00 0.00 0.00 0.00 0.00 0.00 0.00 0.00 0.00 0.00 0.00 0.00 0.00 0.00 0.00 0.00 0.00 0.00 0.00 0.00 0.00 0.00 0.00 0.00 0.00 0.00 0.00 0.00 0.00 0.00 0.00 0.00 0.00 0.00 0.00 0.00 0.00 0.00
0.00 0.00 0.00 0.00 0.00 0.00 0.00 0.00 0.00 0.00 0.00 0.00 0.00 0.00 0.00 0.00 0.00 0.00 0.00 0.00 0.00 0.00 0.00 0.00 0.00 0.00 0.00 0.00 0.00 0.00 0.00 0.00 0.00 0.00 0.00 0.00 0.00 0.00 0.00 0.00 0.00 0.00 0.00 0.00 0.00
0.00 0.00 0.00 0.00 0.00 0.00 0.00 0.00 0.00 0.00 0.00 0.00 0.00 0.00 0.00 0.00 0.00 0.00 0.00 0.00 0.00 0.00 0.00 0.00 0.00 0.00 0.00 0.00 0.00 0.00 0.00 0.00 0.00 0.00 0.00 0.00 0.00 0.00 0.00 0.00 0.00 0.00 0.00 0.00 0.00
0.00 0.00 0.00 0.00 0.00 0.00 0.00 0.00 0.00 0.00 0.00 0.00 0.00 0.00 0.00 0.00 0.00 0.00 0.00 0.00 0.00 0.00 0.00 0.00 0.00 0.00 0.00 0.00 0.00 0.00 0.00 0.00 0.00 0.00 0.00 0.00 0.00 0.00 0.00 0.00 0.00 0.00 0.00 0.00 0.00
0.00 0.00 0.00 0.00 0.00 0.00 0.00 0.00 0.00 0.00 0.00 0.00 0.00 0.00 0.00 0.00 0.00 0.00 0.00 0.00 0.00 0.00 0.00 0.00 0.00 0.00 0.00 0.00 0.00 0.00 0.00 0.00 0.00 0.00 0.00 0.00 0.00 0.00 0.00 0.00 0.00 0.00 0.00 0.00 0.00
0.00 0.00 0.00 0.00 0.00 0.00 0.00 0.00 0.00 0.00 0.00 0.00 0.00 0.00 0.00 0.00 0.00 0.00 0.00 0.00 0.00 0.00 0.00 0.00 0.00 0.00 0.00 0.00 0.00 0.00 0.00 0.00 0.00 0.00 0.00 0.00 0.00 0.00 0.00 0.00 0.00 0.00 0.00 0.00 0.00
0.00 0.00 0.00 0.00 0.00 0.00 0.00 0.00 0.00 0.00 0.00 0.00 0.00 0.00 0.00 0.00 0.00 0.00 0.00 0.00 0.00 0.00 0.00 0.00 0.00 0.00 0.00 0.00 0.00 0.00 0.00 0.01 0.01 0.00 0.00 0.00 0.00 0.00 0.00 0.00 0.00 0.00 0.00 0.00 0.00
0.00 0.00 0.00 0.00 0.00 0.00 0.00 0.00 0.00 0.00 0.00 0.00 0.00 0.00 0.00 0.00 0.00 0.00 0.00 0.00 0.00 0.00 0.00 0.00 0.00 0.00 0.00 0.00 0.00 0.00 0.00 0.00 0.02 0.01 0.01 0.00 0.00 0.00 0.00 0.00 0.00 0.00 0.00 0.00 0.00
0.00 0.00 0.00 0.00 0.00 0.00 0.00 0.00 0.00 0.00 0.00 0.00 0.00 0.00 0.00 0.00 0.00 0.00 0.00 0.00 0.00 0.00 0.00 0.00 0.00 0.00 0.00 0.00 0.00 0.00 0.00 0.02 0.04 0.02 0.01 0.00 0.00 0.00 0.00 0.00 0.00 0.00 0.00 0.00 0.00
0.00 0.00 0.00 0.00 0.00 0.00 0.00 0.00 0.00 0.00 0.00 0.00 0.00 0.00 0.00 0.00 0.00 0.00 0.00 0.00 0.00 0.00 0.00 0.00 0.00 0.00 0.00 0.00 0.00 0.00 0.00 0.01 0.01 0.01 0.00 0.00 0.00 0.00 0.00 0.00 0.00 0.00 0.00 0.00 0.00
0.00 0.00 0.00 0.00 0.00 0.00 0.00 0.00 0.00 0.00 0.00 0.00 0.00 0.00 0.00 0.00 0.00 0.00 0.00 0.00 0.00 0.00 0.00 0.00 0.00 0.00 0.00 0.00 0.00 0.00 0.01 0.02 0.03 0.02 0.01 0.01 0.00 0.00 0.00 0.00 0.00 0.00 0.00 0.00 0.00
0.00 0.00 0.00 0.00 0.00 0.00 0.00 0.00 0.00 0.00 0.00 0.00 0.00 0.00 0.00 0.00 0.00 0.00 0.00 0.00 0.00 0.00 0.00 0.00 0.00 0.00 0.00 0.00 0.00 0.00 0.01 0.01 0.00 0.00 0.00 0.02 0.00 0.00 0.00 0.00 0.00 0.00 0.00 0.00 0.00
0.00 0.00 0.00 0.00 0.00 0.00 0.00 0.00 0.00 0.00 0.00 0.00 0.00 0.00 0.00 0.00 0.00 0.00 0.00 0.00 0.00 0.00 0.00 0.00 0.00 0.00 0.00 0.00 0.00 0.00 0.00 0.00 0.00 0.00 0.00 0.00 0.00 0.00 0.00 0.00 0.00 0.00 0.00 0.00 0.00
0.00 0.00 0.00 0.00 0.00 0.00 0.00 0.00 0.00 0.00 0.00 0.00 0.00 0.00 0.00 0.00 0.00 0.00 0.00 0.00 0.00 0.00 0.00 0.00 0.00 0.00 0.00 0.00 0.00 0.00 0.00 0.00 0.00 0.00 0.00 0.00 0.00 0.00 0.00 0.00 0.00 0.00 0.00 0.00 0.00
0.00 0.00 0.00 0.00 0.00 0.00 0.00 0.00 0.00 0.00 0.00 0.00 0.00 0.00 0.00 0.00 0.00 0.00 0.00 0.00 0.00 0.00 0.00 0.00 0.00 0.00 0.00 0.00 0.00 0.00 0.00 0.00 0.00 0.01 0.00 0.00 0.00 0.00 0.00 0.00 0.00 0.00 0.00 0.00 0.00
0.00 0.00 0.00 0.00 0.00 0.00 0.00 0.00 0.00 0.00 0.00 0.00 0.00 0.00 0.00 0.00 0.00 0.00 0.00 0.00 0.00 0.00 0.00 0.00 0.00 0.00 0.00 0.00 0.00 0.00 0.00 0.02 0.02 0.01 0.00 0.00 0.00 0.00 0.00 0.00 0.00 0.00 0.01 0.03 0.01
MSLP
1020.50 1020.08 1019.69 1019.33 1018.98 1018.60 1018.24 1017.91 1017.54 1017.16 1016.78 1016.46 1016.17 1015.79 1015.33 1014.86 1014.39 1013.93 1013.29 1011.34 1011.08 1010.81 1010.95 1010.84 1010.39 1009.89 1009.83 1009.88 1009.57 1009.58 1009.94 1009.33 1008.65 1007.85 1006.07 1005.27 1004.94 1003.33 1003.44 1002.72 1001.75 1001.16 999.93 998.72 999.90
1020.45 1020.01 1019.58 1019.19 1018.83 1018.47 1018.12 1017.71 1017.27 1016.89 1016.56 1016.25 1015.96 1015.54 1015.06 1014.67 1014.20 1013.31 1010.97 1010.41 1010.46 1010.63 1010.72 1010.60 1010.36 1010.04 1009.98 1009.80 1009.69 1009.63 1009.31 1008.45 1007.61 1007.34 1006.40 1005.75 1004.65 1004.11 1003.89 1003.18 1001.90 1001.70 1000.32 999.76 1000.76
1020.41 1019.90 1019.44 1019.02 1018.61 1018.21 1017.81 1017.38 1016.99 1016.63 1016.29 1016.03 1015.77 1015.40 1014.89 1014.61 1013.92 1011.10 1010.00 1010.10 1010.30 1010.57 1010.60 1010.52 1010.43 1010.36 1010.10 1009.82 1009.54 1008.92 1008.41 1008.19 1007.48 1007.10 1006.52 1005.95 1004.91 1004.73 1004.23 1003.35 1002.86 1002.35 1001.79 1001.40 1001.57
1020.26 1019.71 1019.22 1018.78 1018.34 1017.91 1017.48 1017.04 1016.65 1016.29 1015.96 1015.74 1015.50 1015.05 1014.42 1014.32 1012.78 1010.03 1009.58 1009.68 1010.13 1010.43 1010.47 1010.39 1010.35 1010.26 1010.17 1010.01 1009.43 1009.09 1008.63 1008.19 1007.51 1007.07 1006.73 1006.04 1005.26 1004.19 1004.25 1003.14 1002.77 1001.74 1002.37 1002.05 1002.14
1020.11 1019.55 1019.02 1018.55 1018.11 1017.60 1017.12 1016.73 1016.42 1016.10 1015.77 1015.49 1015.18 1014.79 1014.37 1013.57 1011.27 1009.09 1009.24 1009.55 1010.17 1010.37 1010.20 1010.15 1010.27 1010.14 1010.27 1009.85 1009.43 1009.01 1008.62 1008.00 1007.41 1006.84 1006.32 1006.10 1005.01 1004.08 1003.15 1002.40 1002.60 1001.27 1001.84 1001.99 1001.96
1019.97 1019.38 1018.84 1018.33 1017.80 1017.21 1016.67 1016.25 1015.93 1015.68 1015.46 1015.21 1014.88 1014.64 1014.39 1012.52 1009.10 1008.62 1009.03 1009.81 1009.94 1010.06 1009.73 1009.87 1009.82 1009.77 1010.11 1010.23 1010.10 1009.29 1008.82 1008.26 1007.36 1006.84 1006.31 1005.89 1004.80 1004.31 1001.89 1002.01 1002.07 1001.72 1000.54 1001.52 1001.41
1019.83 1019.22 1018.60 1017.99 1017.35 1016.76 1016.14 1015.67 1015.38 1015.13 1014.93 1014.71 1014.52 1014.35 1013.73 1011.03 1008.94 1009.00 1009.46 1009.29 1009.14 1009.35 1009.30 1008.95 1009.05 1009.53 1009.99 1010.17 1009.74 1009.64 1009.23 1008.30 1007.60 1006.92 1006.53 1006.04 1004.79 1003.47 1002.91 1002.30 1001.99 1001.73 1000.81 1000.64 1001.05
1019.62 1018.97 1018.31 1017.57 1016.93 1016.29 1015.62 1015.04 1014.65 1014.53 1014.44 1014.29 1014.09 1014.03 1012.50 1009.39 1008.94 1009.25 1008.92 1008.57 1008.44 1008.33 1008.51 1008.55 1008.77 1009.47 1010.01 1010.27 1010.23 1010.19 1009.83 1009.20 1007.89 1007.19 1006.53 1006.23 1003.84 1002.78 1003.15 1003.18 1002.18 1001.82 1001.19 1000.47 1000.92
1019.40 1018.73 1018.03 1017.24 1016.46 1015.74 1015.09 1014.40 1013.73 1013.65 1013.69 1013.89 1014.06 1013.67 1011.44 1009.08 1008.94 1008.52 1008.30 1008.49 1008.42 1008.28 1008.29 1008.33 1008.85 1009.72 1010.28 1010.95 1011.34 1010.72 1010.52 1009.55 1008.62 1007.30 1006.65 1006.21 1004.20 1003.52 1003.27 1003.12 1002.42 1001.55 1001.28 1000.81 1000.36
1019.08 1018.32 1017.65 1016.97 1016.16 1015.38 1014.55 1013.40 1012.80 1013.07 1013.05 1013.24 1013.00 1013.18 1010.63 1009.15 1008.38 1008.15 1008.03 1008.19 1008.38 1008.56 1008.59 1008.65 1009.31 1010.16 1010.87 1011.54 1011.63 1011.04 1010.46 1009.47 1008.77 1007.73 1006.99 1006.37 1004.97 1004.47 1004.01 1003.78 1003.23 1002.72 1002.08 1001.34 1000.55
1018.74 1017.91 1017.16 1016.45 1015.78 1015.24 1014.48 1013.21 1013.01 1012.92 1012.43 1011.94 1011.53 1010.91 1009.59 1008.79 1008.11 1008.00 1007.93 1008.09 1008.42 1009.00 1009.54 1009.37 1010.16 1010.69 1010.67 1010.85 1010.60 1010.55 1010.15 1009.67 1008.69 1007.77 1007.09 1006.53 1005.17 1004.50 1004.19 1003.83 1003.64 1003.17 1002.72 1002.00 1001.05
1018.48 1017.56 1016.70 1015.93 1015.23 1014.93 1014.98 1013.95 1012.36 1011.90 1011.52 1010.56 1010.12 1009.90 1009.24 1008.67 1008.34 1008.01 1007.86 1008.54 1008.92 1009.58 1009.89 1010.38 1010.39 1010.14 1010.10 1009.97 1009.99 1009.96 1009.87 1009.48 1008.56 1007.93 1007.58 1007.09 1005.27 1004.17 1004.18 1003.99 1003.60 1003.28 1002.81 1002.16 1001.34
1018.24 1017.40 1016.51 1015.43 1014.64 1014.41 1014.22 1012.77 1011.57 1011.37 1011.76 1009.83 1008.90 1008.62 1008.33 1008.10 1008.09 1007.91 1008.03 1008.33 1008.93 1009.61 1010.08 1010.50 1010.11 1009.59 1009.60 1009.61 1009.72 1009.92 1010.14 1010.07 1009.93 1008.91 1008.39 1007.81 1005.63 1004.66 1003.90 1003.90 1003.67 1003.42 1003.01 1002.35 1001.76
1017.94 1017.19 1016.48 1015.32 1014.51 1014.37 1013.25 1011.96 1011.44 1011.29 1011.70 1009.61 1008.23 1007.49 1007.47 1007.68 1007.86 1007.35 1007.70 1008.32 1008.88 1009.37 1009.79 1010.05 1009.35 1009.45 1009.43 1009.64 1009.78 1010.10 1010.16 1010.21 1010.07 1010.08 1009.72 1009.17 1006.80 1005.65 1004.79 1003.95 1003.82 1003.38 1003.02 1002.46 1001.62
1017.43 1016.74 1016.18 1015.92 1015.18 1014.36 1012.78 1011.82 1011.31 1011.66 1010.91 1008.80 1007.89 1007.03 1007.29 1007.82 1007.48 1007.01 1007.18 1007.92 1008.58 1008.86 1009.71 1009.60 1009.40 1009.30 1009.49 1009.77 1009.83 1010.17 1010.41 1010.59 1010.49 1010.36 1010.15 1009.37 1008.84 1004.93 1005.03 1004.43 1003.95 1003.51 1002.90 1002.24 1001.66
1016.76 1016.08 1015.80 1015.44 1015.22 1013.31 1012.44 1011.86 1011.69 1012.26 1010.21 1008.64 1008.16 1007.90 1008.11 1007.86 1007.59 1007.22 1007.28 1007.65 1007.70 1008.66 1009.05 1009.29 1009.04 1009.08 1009.32 1009.54 1009.75 1010.22 1010.65 1010.87 1010.91 1010.89 1010.54 1009.32 1009.06 1003.73 1005.24 1004.52 1004.18 1003.69 1003.64 1003.13 1002.53
1016.07 1015.13 1015.08 1014.94 1013.86 1012.68 1012.48 1012.35 1012.60 1011.72 1009.70 1009.63 1009.22 1008.82 1008.53 1008.12 1007.86 1007.32 1007.57 1008.02 1008.56 1009.19 1009.61 1009.58 1009.26 1009.11 1009.33 1009.78 1010.06 1010.79 1011.58 1012.20 1012.15 1011.87 1010.69 1009.43 1008.52 1006.00 1004.99 1004.89 1005.17 1004.92 1004.11 1003.25 1002.64
1015.53 1014.43 1014.32 1013.89 1013.15 1013.19 1013.18 1013.26 1012.83 1011.88 1011.00 1010.27 1010.04 1009.37 1009.28 1009.14 1008.93 1008.68 1008.64 1008.98 1009.26 1009.75 1010.35 1010.46 1010.16 1009.55 1009.83 1010.06 1010.41 1011.02 1011.93 1013.11 1013.04 1012.81 1011.39 1010.69 1008.25 1006.29 1005.27 1005.02 1005.06 1004.94 1004.33 1003.28 1002.44
1015.30 1014.36 1013.96 1012.98 1012.78 1013.22 1014.07 1013.81 1013.20 1012.05 1011.36 1010.81 1010.34 1010.12 1010.07 1010.27 1010.25 1010.07 1009.86 1009.83 1010.35 1010.72 1011.43 1011.46 1010.57 1009.75 1009.68 1009.82 1010.52 1010.82 1011.66 1011.74 1012.65 1012.60 1012.27 1010.01 1007.48 1005.79 1005.19 1004.95 1004.34 1004.10 1003.50 1002.89 1002.15
1016.45 1015.53 1013.90 1012.47 1012.61 1013.52 1014.53 1014.21 1012.98 1011.82 1011.03 1011.02 1011.09 1011.05 1011.14 1011.08 1011.16 1011.29 1010.81 1010.56 1010.83 1011.19 1011.50 1012.10 1011.26 1010.29 1010.02 1009.97 1009.55 1010.32 1011.02 1012.08 1013.00 1012.97 1011.65 1009.26 1007.95 1006.59 1005.65 1005.20 1004.55 1003.76 1003.32 1002.42 1001.86
1016.55 1015.71 1013.40 1012.67 1013.05 1014.45 1015.24 1014.41 1013.05 1011.90 1011.13 1011.21 1011.49 1011.73 1011.91 1012.22 1012.10 1011.89 1011.53 1011.17 1011.23 1011.54 1011.69 1012.38 1012.51 1011.52 1011.07 1010.29 1009.66 1010.48 1011.10 1012.05 1012.69 1012.81 1011.66 1010.13 1007.85 1006.18 1005.78 1005.04 1004.73 1003.84 1003.05 1002.10 1001.35
1017.74 1016.35 1013.45 1013.22 1014.50 1015.34 1015.36 1014.52 1013.45 1012.51 1011.80 1011.35 1011.51 1012.00 1012.41 1012.67 1012.61 1012.42 1011.99 1011.74 1011.49 1011.81 1012.32 1013.08 1013.22 1012.76 1011.70 1009.85 1010.00 1010.26 1010.74 1011.40 1012.04 1012.16 1011.29 1010.22 1007.48 1005.27 1005.04 1004.20 1004.13 1003.12 1002.07 1001.43 1000.60
1019.09 1017.20 1014.21 1014.03 1015.70 1016.27 1015.44 1014.60 1013.75 1012.87 1012.44 1012.52 1012.39 1012.53 1012.69 1013.08 1013.27 1012.62 1012.15 1011.71 1011.69 1012.13 1012.68 1013.45 1013.76 1013.33 1011.67 1010.71 1010.43 1010.25 1010.72 1011.00 1011.07 1010.97 1010.32 1009.71 1006.40 1004.53 1004.23 1004.03 1003.47 1002.81 1001.63 1000.68 999.66
1019.30 1018.36 1016.73 1016.21 1016.58 1016.87 1016.61 1015.27 1014.14 1013.13 1013.09 1013.22 1013.38 1013.21 1013.57 1013.73 1013.72 1013.45 1012.83 1012.12 1012.18 1012.28 1012.69 1013.49 1014.04 1013.91 1012.64 1011.27 1010.53 1010.25 1010.11 1010.22 1010.40 1009.89 1009.00 1007.62 1006.14 1004.70 1003.49 1003.11 1002.27 1001.54 1000.02 999.49 998.48
1019.55 1020.13 1019.79 1018.66 1017.89 1017.78 1017.22 1016.05 1015.03 1014.22 1013.78 1013.66 1013.80 1014.21 1014.66 1014.63 1014.29 1013.71 1013.12 1012.67 1012.30 1012.09 1013.13 1013.80 1014.05 1013.62 1012.04 1011.04 1010.13 1009.52 1009.32 1008.77 1008.41 1008.06 1007.81 1005.99 1005.56 1004.01 1003.03 1001.86 1001.05 1000.63 999.63 998.80 997.54
1020.67 1020.86 1020.34 1019.91 1018.98 1018.27 1017.37 1016.73 1015.92 1015.19 1014.72 1014.23 1014.28 1014.24 1014.40 1014.69 1014.55 1013.80 1013.52 1013.35 1013.00 1012.56 1013.03 1013.95 1013.52 1012.97 1011.36 1009.97 1009.25 1008.58 1008.02 1007.51 1006.77 1006.48 1005.98 1005.43 1004.52 1003.17 1002.45 1001.45 1001.09 1000.79 999.74 998.77 997.58
1021.05 1020.79 1020.85 1020.20 1019.59 1018.86 1018.07 1017.57 1016.57 1015.90 1014.87 1014.68 1014.70 1014.38 1014.10 1013.72 1013.26 1012.82 1012.49 1012.36 1012.26 1012.44 1013.03 1013.93 1013.73 1013.13 1011.23 1009.80 1008.93 1007.92 1007.08 1006.71 1006.47 1006.10 1006.07 1005.47 1004.42 1003.99 1002.99 1002.28 1002.16 1000.85 1000.24 999.19 998.29
Thickness
5589 5592 5594 5595 5597 5600 5603 5605 5607 5610 5613 5615 5618 5623 5628 5633 5639 5644 5648 5667 5672 5676 5678 5684 5690 5696 5699 5696 5705 5710 5680 5690 5708 5719 5744 5759 5758 5785 5787 5781 5798 5809 5821 5839 5841
5586 5587 5589 5591 5593 5596 5598 5601 5605 5608 5610 5613 5616 5620 5625 5629 5634 5640 5664 5669 5671 5673 5674 5675 5676 5684 5681 5689 5691 5685 5674 5695 5722 5727 5728 5739 5756 5764 5764 5768 5783 5791 5816 5833 5824
5582 5584 5586 5588 5590 5592 5596 5599 5602 5605 5608 5610 5613 5617 5622 5626 5630 5654 5667 5667 5668 5667 5670 5672 5672 5673 5673 5680 5683 5689 5685 5705 5713 5721 5727 5732 5744 5756 5754 5757 5774 5776 5791 5803 5808
5580 5582 5583 5585 5588 5590 5592 5596 5599 5602 5605 5608 5611 5615 5621 5623 5631 5657 5664 5666 5664 5664 5665 5665 5665 5663 5664 5665 5680 5671 5688 5696 5707 5712 5714 5720 5738 5742 5749 5768 5780 5795 5792 5796 5792
5577 5580 5582 5584 5586 5588 5591 5593 5595 5598 5601 5604 5607 5611 5614 5621 5634 5661 5662 5662 5659 5658 5658 5658 5654 5657 5652 5662 5670 5671 5681 5689 5699 5706 5711 5714 5722 5734 5745 5773 5777 5794 5792 5793 5794
5576 5578 5580 5582 5585 5588 5591 5593 5595 5596 5598 5600 5603 5605 5607 5614 5655 5658 5657 5653 5654 5652 5653 5652 5655 5658 5652 5653 5654 5667 5672 5678 5692 5695 5701 5698 5714 5723 5758 5769 5766 5774 5793 5788 5795
5573 5576 5579 5582 5585 5588 5591 5594 5595 5596 5598 5599 5600 5602 5604 5617 5648 5650 5648 5648 5653 5652 5649 5657 5659 5651 5648 5642 5656 5658 5655 5668 5678 5685 5683 5692 5695 5716 5747 5755 5753 5759 5777 5787 5789
5572 5575 5578 5581 5585 5588 5592 5596 5598 5597 5597 5597 5598 5598 5603 5637 5642 5642 5645 5646 5651 5654 5652 5654 5654 5644 5639 5642 5641 5639 5643 5640 5667 5669 5675 5672 5684 5725 5731 5728 5738 5749 5761 5779 5776
5568 5571 5576 5581 5585 5589 5594 5598 5602 5601 5599 5596 5594 5594 5603 5634 5632 5639 5642 5636 5640 5644 5646 5650 5642 5630 5629 5616 5608 5620 5614 5628 5639 5657 5655 5657 5679 5710 5714 5712 5720 5735 5742 5759 5770
5564 5568 5573 5578 5584 5589 5595 5603 5607 5602 5601 5598 5599 5591 5612 5620 5631 5633 5639 5636 5630 5630 5628 5630 5619 5610 5600 5595 5586 5604 5609 5623 5625 5643 5645 5645 5666 5685 5696 5692 5698 5709 5718 5731 5751
5562 5567 5571 5576 5582 5586 5593 5601 5602 5600 5602 5601 5603 5605 5616 5624 5633 5627 5632 5626 5623 5614 5601 5610 5597 5589 5596 5598 5608 5609 5610 5609 5621 5634 5636 5637 5655 5673 5681 5686 5687 5695 5707 5717 5735
5561 5566 5570 5574 5581 5585 5584 5593 5602 5604 5594 5610 5612 5610 5616 5620 5610 5617 5627 5609 5605 5592 5597 5589 5584 5600 5605 5606 5604 5603 5599 5597 5615 5624 5624 5623 5644 5670 5673 5673 5682 5688 5696 5706 5720
5561 5565 5569 5574 5581 5584 5585 5596 5605 5606 5587 5606 5615 5612 5613 5617 5607 5607 5615 5609 5597 5590 5588 5580 5588 5601 5598 5592 5592 5589 5582 5580 5582 5601 5605 5600 5627 5646 5664 5663 5671 5678 5684 5694 5702
5564 5566 5567 5574 5580 5579 5587 5598 5601 5602 5570 5595 5607 5613 5615 5613 5599 5616 5615 5603 5593 5584 5586 5580 5592 5590 5586 5582 5581 5570 5579 5577 5578 5570 5559 5587 5582 5619 5639 5645 5650 5660 5667 5677 5687
5569 5570 5570 5568 5570 5574 5588 5594 5597 5589 5560 5603 5603 5621 5614 5599 5603 5604 5612 5600 5584 5585 5581 5574 5579 5576 5572 5572 5576 5564 5568 5564 5567 5559 5552 5571 5547 5616 5621 5624 5638 5647 5656 5663 5676
5578 5578 5575 5573 5570 5582 5587 5590 5587 5561 5559 5588 5598 5595 5590 5592 5594 5600 5596 5597 5596 5580 5580 5575 5583 5573 5566 5568 5566 5561 5553 5550 5546 5544 5528 5562 5546 5609 5599 5612 5623 5627 5625 5638 5651
5587 5589 5583 5578 5582 5587 5586 5580 5557 5550 5593 5575 5575 5581 5579 5580 5582 5589 5585 5578 5564 5558 5556 5564 5566 5570 5565 5554 5553 5544 5525 5500 5507 5515 5524 5550 5540 5577 5594 5589 5578 5587 5604 5620 5636
5592 5596 5589 5586 5587 5583 5578 5565 5552 5570 5567 5577 5570 5573 5567 5569 5570 5572 5567 5557 5563 5557 5542 5533 5536 5561 5555 5547 5538 5533 5524 5482 5489 5508 5519 5531 5532 5559 5570 5571 5574 5579 5586 5607 5620
5595 5596 5594 5594 5589 5581 5562 5545 5553 5561 5567 5564 5565 5557 5556 5556 5556 5556 5554 5554 5549 5546 5534 5528 5539 5558 5556 5552 5540 5531 5518 5524 5489 5509 5504 5523 5548 5567 5570 5566 5572 5575 5583 5591 5610
5584 5584 5590 5597 5590 5573 5549 5551 5559 5566 5567 5559 5542 5550 5540 5544 5541 5537 5543 5549 5543 5542 5541 5530 5526 5550 5548 5545 5548 5530 5528 5499 5481 5495 5507 5530 5535 5541 5554 5555 5562 5569 5572 5583 5596
5582 5584 5594 5594 5585 5559 5536 5547 5556 5562 5562 5550 5539 5533 5533 5526 5528 5528 5534 5538 5539 5537 5536 5524 5519 5530 5531 5529 5530 5520 5510 5502 5492 5495 5506 5505 5519 5542 5544 5550 5548 5556 5564 5572 5583
5568 5577 5593 5589 5560 5542 5546 5551 5553 5550 5551 5549 5542 5532 5524 5522 5521 5521 5521 5526 5533 5531 5525 5517 5503 5496 5520 5536 5530 5521 5510 5496 5481 5496 5498 5498 5514 5551 5543 5548 5545 5554 5565 5569 5578
5555 5560 5585 5580 5531 5534 5547 5551 5549 5544 5542 5530 5530 5529 5527 5518 5510 5519 5522 5530 5530 5523 5516 5510 5489 5494 5512 5522 5516 5511 5506 5501 5497 5490 5494 5496 5522 5550 5545 5545 5545 5546 5558 5567 5579
5554 5553 5556 5552 5546 5546 5534 5539 5540 5544 5535 5526 5520 5519 5511 5509 5509 5505 5510 5523 5521 5520 5519 5505 5493 5488 5493 5510 5511 5497 5502 5499 5491 5477 5501 5514 5522 5539 5552 5551 5552 5552 5565 5571 5581
5545 5538 5532 5526 5532 5525 5528 5535 5534 5531 5530 5523 5515 5507 5497 5491 5492 5498 5507 5510 5517 5519 5501 5494 5493 5490 5503 5506 5508 5504 5502 5506 5506 5510 5502 5526 5525 5540 5545 5554 5557 5555 5565 5568 5581
5531 5522 5518 5513 5522 5526 5526 5527 5526 5526 5521 5516 5511 5507 5500 5485 5486 5489 5494 5496 5496 5509 5505 5488 5495 5497 5503 5515 5516 5512 5514 5516 5523 5525 5524 5523 5524 5545 5546 5555 5555 5552 5561 5566 5577
5527 5524 5520 5513 5512 5517 5512 5511 5516 5512 5518 5514 5504 5500 5496 5498 5501 5502 5504 5505 5506 5504 5495 5478 5482 5485 5504 5518 5515 5514 5522 5521 5518 5523 5515 5507 5524 5525 5533 5542 5540 5546 5551 5564 5575